Regional Weather Roundup
Issued by NWS Charleston, SC

Current Version | Previous Version | Text Only | Print | Product List | Glossary Off
Versions: 1 2 3 4 5 6 7 8 9 10 11 12 13 14 15 16 17 18 19 20 21 22 23 24 25 26 27 28 29 30 31 32 33 34 35 36 37 38 39 40 41 42 43 44 45 46 47 48 49 50
710 ASUS42 KCHS 241312 RWRCHS Regional Weather Roundup National Weather Service Charleston SC 900 AM EDT SUN MAR 24 2019 NOTE: "fair" indicates few or no clouds below 12,000 feet with no significant weather and/or obstructions to visibility. Not all stations are quality controlled. Use data with caution, especially dewpoint observations. SCZ027-030-031-034>040-042>050-241400- ...Southeast South Carolina... CITY SKY/WX TMP DP RH WIND PRES REMARKS N Charleston FAIR 53 49 86 CALM 30.34R Waterfront Prk N/A 57 54 89 CALM 30.19R Mount Pleasant FAIR 48 48 100 CALM 30.35R Johns Island FAIR 57 52 82 CALM 30.34R Pinopolis N/A 50 46 87 CALM 30.26R Moncks Corner FAIR 48 45 87 CALM 30.34S Summerville FAIR 45 43 93 CALM 30.35R Beaufort MCAS FAIR 59 56 89 CALM 30.32R Beaufort Arpt FAIR 55 52 88 CALM 30.32S Hilton Head Is SUNNY 61 50 67 CALM 30.32R Walterboro FAIR 48 46 93 CALM 30.34S Allendale FAIR 48 45 87 CALM 30.32R ...Southern Midlands and Pee Dee... CITY SKY/WX TMP DP RH WIND PRES REMARKS Georgetown FAIR 48 46 93 CALM 30.35S Kingstree FAIR 41 39 93 CALM 30.35R Orangeburg FAIR 47 40 76 CALM 30.33S Barnwell FAIR 45 41 87 CALM 30.33R Aiken FAIR 48 43 81 SE5 30.35R Manning FAIR 43 41 93 CALM 30.35R Columbia PTSUNNY 45 39 79 CALM 30.33R Sumter NOT AVBL Florence FAIR 45 40 82 CALM 30.34S Myrtle Beach FAIR 49 45 86 CALM 30.35R N Myrtle Beach FAIR 48 47 96 CALM 30.35R $$ GAZ063-065-086>088-099>101-113>116-118-119-134>141-150-241400- ...Southeast Georgia... CITY SKY/WX TMP DP RH WIND PRES REMARKS Savannah Arpt PTSUNNY 55 52 89 CALM 30.32R Hunter AAF NOT AVBL Fort Stewart NOT AVBL Statesboro FAIR 47 46 95 CALM 30.31S Sylvania FAIR 48 46 95 CALM 30.32S Claxton FAIR 49 47 93 CALM 30.31S Millen FAIR 48 44 85 CALM 30.31S ...CSRA, Central and far Southeast Georgia... CITY SKY/WX TMP DP RH WIND PRES REMARKS Thomson FAIR 47 42 82 CALM 30.36R Augusta-Bush FAIR 47 43 86 CALM 30.32S FOG Augusta-Daniel FAIR 51 40 65 SE5 30.32R Swainsboro FAIR 52 48 87 CALM 30.32R Vidalia FAIR 55 50 82 SE3 30.31R Eastman FAIR 44 44 100 CALM 30.33S Hazlehurst FAIR 50 47 89 CALM 30.29R Alma PTSUNNY 51 49 92 CALM 30.30R FOG Waycross HAZE 49 45 84 CALM 30.30R VSB<1/4 Jesup NOT AVBL Baxley FAIR 48 48 100 CALM 30.30R Brunswick FAIR 54 54 100 CALM 30.30R Saint Simons PTSUNNY 62 59 90 CALM 30.29R $$ SCZ027-028-034-036>038-045-046-048>050-GAZ119-141-241400- ...Lake and Supplemental Coastal Observations... STATION/POSITION TIME TEMP WIND PRES WAVE SWELL AIR SEA DIR/SP/G HT/PER HT/PER/DIR (UTC) (F) (DEG/KT/KT) (MB) (FT/S) (FT/S/D) Winyah Bay 1145 41 CALM 1026.0 Lake Murray 1220 46 CALM 1026.1 ACE Basin NERRS NOT AVBL Fort Pulaski 1242 61 59 1026.6R Sapelo Island 1200 58 90/ 4 1025.0 $$ ANZ835-935-AMZ111-154-330-350-352-354-370-450-454-472-241400- ...C-MAN and Buoy Observations... STATION/POSITION TIME TEMP WIND PRES WAVE SWELL AIR SEA DIR/SP/G HT/PER HT/PER/DIR (UTC) (F) (DEG/KT/KT) (MB) (FT/S) (FT/S/D) Buoy 41004 1250 70 130/ 8/ 12 1027.6R 2/10 2/ 80/10 Buoy 41008 1250 64 62 90/ 8/ 10 1025.8R 3/11 2/ 70/11 Folly Beach CMAN 1200 59 80/ 4/ 5 1027.3R Capers Nearshore 1208 59 59 60/ 4/ 6 1027.2R Fripp Nearshore 1208 60 60 80/ 6/ 8 1026.2R STATION/POSITION TIME TEMP WIND PRES WAVE SWELL AIR SEA DIR/SP/G HT/PER HT/PER/DIR (UTC) (F) (DEG/KT/KT) (MB) (FT/S) (FT/S/D) 5E St. Marys GA 1300 62 N/A 2/11 Frying Pan Buoy 1250 62 67 90/ 4/ 6 1028.3R 2/ 9 2/ 80/ 9 Buoy 41025 NOT AVBL Cape Lookout NC 1200 53 20/ 5/ 5 1028.0R Buoy 41002 1250 60/ 6/ 10 1027.8R Buoy 41010 1250 71 74 100/ 10/ 14 1025.4R 4/ 8 3/ 30/ 8 St Augustine FL 1300 65 63 80/ 6/ 6 1025.6R $$

USA.gov is the U.S. government's official web portal to all federal, state and local government web resources and services.